Regional Weather Roundup
Issued by NWS

Home | Current Version | Previous Version | Graphics & Text | Print | Product List | Glossary On
Versions: 1 2 3 4 5 6 7 8 9 10 11 12 13 14 15 16 17 18 19 20 21 22 23 24 25 26 27 28 29 30 31 32 33 34 35 36 37 38 39 40 41 42 43 44 45 46 47 48 49 50
000
ASUS43 KLMK 260702
RWRKY
KENTUCKY REGIONAL WEATHER ROUNDUP
NATIONAL WEATHER SERVICE LOUISVILLE KY
200 AM EST MON JAN 26 2015

NOTE "FAIR" INDICATES FEW OR NO CLOUDS BELOW 12,000 FEET
WITH NO SIGNIFICANT WEATHER AND/OR OBSTRUCTIONS TO VISIBILITY.

KYZ001>023-026-027-061>063-070>075-260800-
WESTERN AND SOUTH CENTRAL KENTUCKY

CITY           SKY/WX    TMP DP  RH WIND       PRES   REMARKS
PADUCAH        CLOUDY    35  31  85 NW16G26   29.91R WCI  25
HENDERSON      CLOUDY    32  27  80 NW13G20   29.88R WCI  22
OWENSBORO      CLOUDY    32  30  92 N15       29.84R WCI  22
HOPKINSVILLE   CLOUDY    36  34  93 NW14G28   29.83R WCI  27
BOWLING GREEN  CLOUDY    41  37  86 NW9G17    29.76R
GLASGOW        NOT AVBL
$$

KYZ024-025-028>034-038-045-046-053-260800-
NORTH CENTRAL KENTUCKY

CITY           SKY/WX    TMP DP  RH WIND       PRES   REMARKS
LOUISVILLE/SDF CLOUDY    30  27  88 NW21      29.77R WCI  17
LOUISVILLE/LOU CLOUDY    29  26  89 NW16G25   29.77R WCI  17
FORT KNOX      CLOUDY    31  29  92 NW17G26   29.74R WCI  20
$$

KYZ035>037-039>044-047>052-055>060-089>105-260800-
NORTHEAST KENTUCKY

CITY           SKY/WX    TMP DP  RH WIND       PRES   REMARKS
LEXINGTON      FOG       37  37 100 NW10      29.66R VSB 1/4 WCI  30
COVINGTON      LGT SNOW  27  24  89 N15       29.73R FOG     WCI  15
FRANKFORT      CLOUDY    35  33  92 N16G23    29.68R WCI  25
$$

KYZ054-064>069-076>088-106>120-260800-
SOUTHEAST KENTUCKY

CITY           SKY/WX    TMP DP  RH WIND       PRES   REMARKS
JACKSON        CLOUDY    42  37  82 CALM      29.62S
LONDON         CLOUDY    40  34  79 W9        29.65R WCI  34
SOMERSET       NOT AVBL
MIDDLESBORO    NOT AVBL
MONTICELLO     CLOUDY    39  37  92 W8        29.71R WCI  33
$$




USA.gov is the U.S. government's official web portal to all federal, state and local government web resources and services.